STARLINK-3088, 49163

Orbit data source: Space-Track

STARLINK-3088, 49163 is a payload satellite owned by SpaceX/Seattle (US) in LEO that was launched on Tue, 14 Sep 2021 UTC via an FALCON 9 launch vehicle from the Air Force Western Test Range (AFWTR). Payload-class satellites include a variety of spacecraft equipped with specific instruments for various scientific and technological missions. These include communications satellites like Starlink; space stations such as the ISS; scientific satellites like the Hubble; Earth observation satellites from companies like Planet Labs, Umbra, and HawkEye 360; GPS; miniature CubeSats for education and research; and military/defense satellites.

Loading next visibility...
Identifier
49163, 2021-082AK
Orbit
LEO
Last TLE update
10 hours ago
Origin
Manufacturer
SpaceX/Seattle
Mission
Operational Commercial Communications
Bus & Motor
STARLINK, Unknown motor
Mass
297 kg wet, ~275 kg dry
Launch date (UTC)
2021-09-14 (4 years ago)
Launch vehicle
FALCON 9
Launch site
Air Force Western Test Range (AFWTR)
Object type
Payload
Rocket body
Debris
Shape & HBR
Box + 1 Pan, 8.86 m
Radar Cross Section
13.562 m², Large (>1 m²)

Expand to show TLE details & history

TLE from 10 hours ago
0 STARLINK-3088
1 49163U 21082AK  25128.95446385  .00000342  00000-0  36489-4 0  9991
2 49163  69.9987 322.7995 0003062 268.9254  91.1554 14.98331503201990
Epoch: 2025-05-08T22:54Z
Definitive object data (Epoch: 2025-05-08T22:54:25.676Z)
Latitude
-0.00005°
Longitude
112.17495°
Altitude
574.519 km
Speed
7.574 km/s
True Right ascension
21h 31m 11s
True Declination
0° 00' 00"
Sunlit
Object was in daylight at TLE epoch
Visualization TLE readout
Latitude
21.54788°
Longitude
-77.12643°
Altitude
574.955 km
Speed
7.575 km/s
Apparent Right ascension
07h 23m 56s
Apparent Declination
-8° 32' 16"
Sunlit
Object is in daylight
Visualization observer readout
Local Sidereal Time
17:22:26
Azimuth
310.927° NW
Elevation
-48.558°
Doppler factor
1
Orbital elements
Apogee altitude
572.127 km
Perigee altitude
567.872 km
Semi-major axis
6,948.137 km
Eccentricity
0.0003062
Inclination
69.9987°
RAAN
322.7995°
Arg. of periapsis
268.9254°
True anomaly
91.19048°
Mean anomaly
91.1554°
Eccentric anomaly
91.17294°
Mean motion
3.74749 °/min
BSTAR
0.000036489
Orbital period
96.06 mins
Loading maneuver chart data...
Loading SW <> Apogee altitude chart data...
Loading historical data...
Loading historical data...
Loading historical data...
Loading historical data...
Loading historical data...
Loading historical data...
Loading historical data...

STARLINK-3088 Visibility forecast

Observer location: undefined°, undefined°

Span
Click to sort rows by Start time (UTC) header in descending order
Start Az.
Max El. time (UTC)
Max El. Az.
Max El.
End time (UTC)
End Az.
6 mins2025-05-09 13:27:09.025Z153.337° SSE2025-05-09 13:30:09.025Z105.185° ESE20.131°2025-05-09 13:33:09.025Z56.836° ENE
5 mins2025-05-09 15:06:09.025Z253.609° W2025-05-09 15:08:09.025Z297.698° NW27.048°2025-05-09 15:11:09.025Z357.528° N
6 mins2025-05-09 23:30:09.025Z359.321° N2025-05-09 23:32:09.025Z49.568° ENE35.461°2025-05-09 23:36:09.025Z134.969° SE
|